Tracking 30995 objects as of 5-Jul-2025
HD Live streaming from Space Station
objects crossing your sky now

BREEZE-M R/B

Track BREEZE-M R/B now!
10-day predictions


NORAD ID: 28944
Int'l Code: 2006-006B
Perigee: 1,105.5 km
Apogee: 14,766.7 km
Inclination: 50.7 °
Period: 283.8 minutes
Semi major axis: 14307 km
RCS: 13.6373 m2 (large)
Launch date: February 28, 2006
Source: Commonwealth of Independent States (former USSR) (CIS)
Launch site: TYURATAM MISSILE AND SPACE COMPLEX (TTMTR)

Note: This is a ROCKET BODY
Your satellite tracking list
Your tracking list is empty




NASA's NSSDC Master Catalog

Two Line Element Set (TLE):
1 28944U 06006B   25185.25579471 -.00000084  00000-0  00000-0 0  9993
2 28944  50.7394 305.0805 4774303 315.2218  16.5647  5.07313120340242
Source of the keplerian elements: AFSPC